NOAA 16 DEB

Satellite information

Favourite Embed

Satellite Type and Status

DEBRISIN ORBIT

Key statistics

Satellite NOAA 16 DEB at a glance.

Uptime

8994

Days in orbit

Revolutions

≈ 14.5

Per day

Orbit

SSO

Sun Synchronous Orbit

Inclination

98.9

Latest

Satellite identification and parameters

Extended collection of information and parameters for NOAA 16 DEB.

Object identification

Identified? True

Debris? True

Object name: NOAA 16 DEB

International designator: 2000-055RS

Object number (NORAD): 42374

Object ID (CCSDS): 42374

Country: UNITED STATES OF AMERICA (US)

Current information (Y/N): Y

RCS size: SMALL

Orbital parameters

Period: 99.13 minutes

Inclination: 98.858 deg

SMA: 7095.197 km

Apoapsis: 727.239 km

Periapsis: 706.884 km

RAAN: 238.9924 deg

Eccentricy: 0.0014344

Argument of periapsis: 203.6861 deg

Mean anomaly: 156.3674 deg

Mean motion: 14.52633674 rev/day

Mean motion (dot): 0.00038152 rev/day2

B* drag term: 0.0092653 1/REarth

Two-line elements (TLE)

Creation date: May 3, 2025, 2:26 a.m.

Reference frame: TEME

Reference center: EARTH

Epoch: May 2, 2025, 6:32 p.m. UTC

TLE line 0: 0 NOAA 16 DEB

TLE line 1: 1 42374U 00055RS 25122.77267072 .00038152 00000-0 92653-2 0 9996

TLE line 2: 2 42374 98.8580 238.9924 0014344 203.6861 156.3674 14.52633674468673

Live tracking on map

Real-time ground track for satellite NOAA 16 DEB.

In-orbit conjunctions

A list of the most updated potential collisions computed for object NOAA 16 DEB.

Target Orbit TCA Probability of collision Miss distance Type
ORSTED SSO 2025-03-30 07:43:02 0.0006707502 113.0 (m) PAYLOAD
COSMOS 468 LEO 2024-07-03 11:40:47 0.0001841579 72.0 (m) PAYLOAD

Associated space launch

The NOAA K, L and M POES satellites begin the fifth generation of improved environmental monitoring in support of NOAA missions. The instrument payload has significant improvements and additions/deletions. The instrument changes have effected the spacecraft subsystems and data formats.

NOAA 16 DEB was lifted into orbit during the mission ‘Titan II SLV | NOAA 16’, on board a Titan II SLV space rocket.

The launch took place on Sept. 21, 2000, 10:22 a.m. from Space Launch Complex 4W.

For more information about the launch, click the button.

Launch to space Titan II SLV | NOAA 16
Titan II SLV | NOAA 16

Agency: N/A

Status: Launch Successful

Launch date: Sept. 21, 2000, 10:22 a.m. UTC

Rocket: Titan II SLV

Launch pad: Space Launch Complex 4W

Location: Vandenberg SFB, CA, USA

...

Latest news about this satellite

There are no fresh news available about this satellite. Check back as we update our databases every day.


Newsletter sign-up

Weekly statistics, charts and insights to help you stay on top of the space industry.